COSMOS 1275 DEB, 12732

Orbit data source: Space-Track

COSMOS 1275 DEB, 12732 is space debris in LEO originally from a launch on Thu, 04 Jun 1981 UTC launched from the Plesetsk Missile And Space Complex (PKMTR). Debris objects in space refer to the collection of defunct objects orbiting the Earth. Examples of debris include non-operational satellites, rocket bodies, and fragments generated from explosions, collisions, or faulty payload assembly.

Loading next visibility...
Identifier
12732, 1981-053BZ
Orbit
LEO
Country
Flag of CISCIS
Related business
Manufacturer
Unknown
Mission
Spacecraft
Bus & Motor
Unknown
Mass
Unknown
Launch date (UTC)
1981-06-04 (45 years ago)
Launch vehicle
Unknown
Launch site
Plesetsk Missile And Space Complex (PKMTR)
Object type
Payload
Rocket body
Debris
Shape & HBR
Unknown shape, 0.1 m
Radar Cross Section
Small (<0.1 m²)

Expand to show TLE details & history
Last TLE update: 11 hours ago

TLE from 11 hours ago
0 COSMOS 1275 DEB
1 12732U 81053BZ  26119.19100078  .00000370  00000-0  27743-3 0  9993
2 12732  82.9847 100.8590 0049982 237.7164 138.1138 13.91555883264331
Epoch: 2026-04-29T04:35Z
TLE epoch observation values (Epoch: 2026-04-29T04:35:02.467Z)
Latitude
16.06701°
Longitude
176.9637°
Altitude
952.701 km
Speed
7.363 km/s
True Right ascension
06h 51m 31s
True Declination
15° 58' 42"
Sunlit
Object was in daylight at epoch
Visualization orbit readout
Latitude
Unknown
Longitude
Unknown
Altitude
Unknown
Speed
Unknown
Apparent Right ascension
Unknown
Apparent Declination
Unknown
Sunlit
N/A
Visualization observer readout
Local Sidereal Time
23:09:31
Azimuth
Unknown
Elevation
Unknown
Doppler factor
Unknown
Orbital elements
Apogee altitude
956.787 km
Perigee altitude
883.829 km
Semi-major axis
7,298.445 km
Eccentricity
0.005
Inclination
82.9847°
RAAN
100.859°
Arg. of periapsis
237.7164°
True anomaly
138.49443°
Mean anomaly
138.1138°
Eccentric anomaly
138.30429°
Mean motion
3.48095 °/min
Orbital period
103.42 mins
BSTAR
0.00027743
Loading maneuver chart data...
Computing Atmospheric mass density...
Loading historical data...
Loading historical data...
Loading historical data...
Loading historical data...
Loading historical data...
Loading historical data...
Loading historical data...

Documentation

Showing up to 5 results
|